Theta_e
320 320 319 320 320 319 319 319 320 320 319 319 320 319 318 318 318 318 316 328 333 333 333 334 337 339 339 339 339 341 353 352 355 353 352 352 352 351 351 350 349 347 346
319 320 321 321 321 321 322 322 321 320 319 318 318 318 318 317 317 316 317 317 327 332 331 330 331 332 335 338 339 342 345 353 352 353 352 352 351 351 352 352 350 349 347
320 321 321 319 318 320 318 318 318 317 315 316 315 316 316 315 316 315 316 316 318 325 327 328 329 330 331 332 338 343 343 350 352 352 352 351 351 351 351 352 352 350 348
317 315 314 313 315 315 314 314 313 312 311 310 310 311 312 313 314 315 316 316 315 316 320 325 327 329 330 331 332 338 338 340 351 351 351 350 351 350 350 351 351 350 349
316 312 312 311 311 310 309 309 308 307 306 307 308 309 309 309 310 312 313 314 314 315 315 320 322 324 326 328 331 332 337 338 339 349 350 350 350 350 350 350 350 350 348
314 310 309 308 308 306 306 306 304 305 305 305 306 306 306 307 308 309 310 312 311 312 312 312 312 315 322 325 330 332 333 336 339 341 348 349 349 349 349 350 349 348 348
310 308 306 306 305 304 303 304 303 302 302 303 302 301 302 305 305 305 306 306 307 309 309 311 311 312 315 321 323 326 332 336 337 340 345 346 348 349 349 350 349 348 348
307 307 305 304 303 302 301 301 300 300 300 302 301 301 297 301 302 304 305 306 305 308 309 309 310 310 311 311 314 324 331 337 338 341 341 345 346 348 349 348 347 348 348
305 305 304 303 302 300 299 302 303 302 300 303 304 302 298 297 299 305 306 305 304 305 306 307 308 309 309 310 313 318 329 333 339 341 343 344 344 344 345 341 340 345 345
303 304 304 303 301 301 301 303 305 303 302 300 302 304 304 303 297 295 303 303 305 306 307 306 306 307 308 308 314 319 327 331 336 340 342 345 346 345 340 338 336 340 344
301 302 303 302 303 303 302 303 303 303 303 301 301 301 301 301 302 298 296 300 303 304 305 307 306 305 306 307 310 317 326 331 334 337 341 345 347 344 341 339 339 338 339
300 301 302 303 303 303 303 303 304 303 303 302 302 301 300 299 299 299 298 298 298 301 305 306 306 306 305 306 313 318 324 330 331 331 335 340 342 343 342 340 341 341 339
298 300 301 302 303 304 303 303 302 302 302 301 301 301 302 301 302 300 299 298 297 300 301 303 305 306 307 307 311 317 322 328 328 327 327 329 332 334 337 339 338 339 337
299 303 303 302 302 302 303 303 302 302 302 301 301 301 301 302 302 301 299 298 295 297 300 300 305 306 306 308 312 318 323 325 326 323 324 325 326 329 332 332 334 334 336
303 303 302 301 302 303 303 303 302 302 302 302 301 302 301 302 302 302 302 301 297 293 295 300 301 303 306 309 312 316 323 325 326 322 322 322 323 324 326 327 328 329 331
302 302 302 302 303 303 303 303 302 303 302 303 303 303 302 303 303 303 302 302 301 299 295 301 302 305 307 310 314 320 321 322 323 322 322 322 322 323 324 325 324 325 327
301 301 302 302 302 303 304 303 303 304 304 304 305 305 304 305 303 302 303 302 301 301 298 300 304 307 306 309 313 317 318 318 319 322 322 320 319 319 320 320 321 324 326
302 301 301 302 302 303 303 303 303 305 304 304 304 305 305 307 304 303 303 302 302 303 301 299 303 304 306 310 314 313 315 315 314 317 317 316 316 316 316 315 315 316 318
300 301 301 301 301 302 301 302 304 304 304 304 305 304 305 306 305 303 303 302 303 304 304 302 302 306 308 312 312 311 312 312 314 314 314 315 315 314 314 313 313 312 311
296 299 301 302 302 301 300 300 303 304 304 304 304 304 305 307 307 307 304 303 304 304 305 305 306 308 309 312 312 309 307 309 308 311 312 312 313 314 314 314 314 312 309
294 296 300 301 301 301 299 300 302 303 303 303 303 303 304 309 311 309 307 305 305 304 305 305 305 307 310 309 308 309 307 307 306 309 307 308 308 308 310 312 313 312 309
292 293 296 298 300 300 300 300 301 302 303 302 301 302 302 304 305 308 308 309 307 304 303 304 305 305 307 309 310 308 306 305 302 307 306 306 308 307 308 309 309 308 307
290 291 294 294 294 296 299 298 300 301 302 302 301 301 301 302 302 303 307 307 307 307 306 305 303 303 304 306 307 306 305 304 303 306 307 305 308 307 310 308 307 307 305
289 290 293 292 291 293 297 297 298 299 301 301 301 300 299 299 300 301 302 303 304 305 306 306 305 305 305 306 307 307 306 305 306 307 308 302 306 305 309 309 306 305 304
288 289 290 290 290 291 295 296 296 296 299 300 301 300 299 298 298 298 301 300 302 303 306 305 303 302 301 301 305 307 305 303 302 304 307 305 305 305 305 304 307 306 303
289 290 290 289 293 289 294 295 295 296 298 298 299 299 299 297 296 297 299 298 298 300 302 303 303 304 304 304 305 306 305 303 303 301 304 304 306 304 300 302 303 304 305
Wind_Speed
4 5 5 5 5 5 4 5 5 5 6 6 6 6 7 6 6 4 4 16 16 19 24 26 25 24 21 22 22 20 22 27 28 28 27 27 26 26 25 25 24 23 23
3 4 4 4 4 4 4 4 4 4 4 5 7 6 7 6 7 6 5 7 19 21 23 24 25 27 26 22 22 21 21 24 27 27 27 27 27 26 26 25 25 25 24
5 5 4 4 4 4 6 5 5 4 5 6 8 9 9 10 10 11 9 9 10 16 20 22 24 24 23 22 21 19 19 18 22 25 27 26 27 26 26 27 27 27 25
6 5 4 5 5 5 4 5 4 5 4 5 5 7 7 8 11 12 11 9 5 7 12 18 20 21 22 24 25 23 22 19 18 21 24 26 26 27 27 27 27 27 26
7 5 4 4 5 4 4 4 3 3 5 7 9 9 9 9 11 11 13 12 10 7 4 8 15 18 19 20 20 21 21 22 20 19 23 25 26 27 28 28 28 28 28
8 6 4 4 4 3 4 5 5 3 6 8 10 11 10 9 10 9 9 8 6 6 6 7 6 7 18 18 18 18 19 22 22 21 21 25 26 27 27 28 29 29 29
5 4 3 4 5 5 5 6 4 6 7 5 7 7 6 11 10 7 4 4 7 7 6 5 5 5 5 17 19 20 21 23 23 23 21 23 25 26 25 27 29 29 29
6 7 5 4 5 4 6 5 5 6 4 4 5 10 6 5 3 5 7 5 7 5 6 7 6 9 7 8 13 22 23 23 22 22 22 21 23 24 25 26 28 28 28
6 6 5 4 5 4 4 6 6 7 8 6 6 5 5 3 8 6 5 8 5 8 8 5 8 9 10 10 14 15 22 23 21 22 23 23 21 21 22 11 3 19 26
7 7 6 6 6 4 6 7 8 8 8 9 7 6 9 9 5 6 3 10 10 8 8 9 6 9 9 9 16 22 23 24 24 23 22 22 23 16 17 16 14 15 21
7 7 7 7 7 6 7 10 11 10 8 8 8 7 8 8 10 9 10 9 9 8 8 8 8 7 10 9 10 15 22 23 22 20 17 18 17 23 23 22 21 24 22
6 6 8 8 9 9 9 10 11 11 10 10 9 9 8 7 6 6 6 9 13 8 8 9 6 8 8 8 14 22 23 20 16 15 9 13 19 22 24 23 21 20 20
5 7 8 9 9 10 10 10 10 11 10 10 11 9 8 9 8 8 9 10 9 6 7 8 7 7 8 7 8 20 25 17 15 8 5 3 5 7 11 14 15 18 14
6 9 9 8 11 10 10 10 8 8 10 9 12 11 9 9 8 8 8 7 9 6 7 9 7 8 4 7 13 24 12 14 9 7 9 8 9 12 11 10 12 12 10
7 10 10 10 11 11 11 11 8 10 10 10 10 11 9 9 8 7 7 7 6 6 6 5 5 4 6 8 13 13 7 9 8 6 5 2 2 4 6 9 11 12 12
8 10 11 11 12 11 12 11 9 10 11 8 8 10 10 8 7 6 6 6 5 7 7 5 8 11 10 9 12 5 6 9 5 2 6 5 6 6 5 8 9 11 17
8 9 10 11 12 12 12 11 11 11 12 11 10 9 11 9 5 4 5 5 6 5 7 10 7 9 11 11 9 4 5 5 6 9 11 11 11 10 9 9 7 7 4
8 8 9 10 11 12 12 11 12 12 12 11 12 10 10 7 6 5 4 6 6 5 5 12 10 9 8 9 4 3 3 7 7 15 15 13 14 13 12 12 13 14 13
9 9 7 8 10 11 11 11 10 11 12 12 12 11 10 9 7 4 5 5 5 5 6 7 10 5 5 5 2 3 5 5 5 12 13 15 13 12 11 12 13 14 14
7 8 6 6 8 9 10 11 10 10 11 11 12 12 11 10 11 6 5 5 5 5 7 8 8 5 4 3 1 1 3 4 3 5 12 12 11 13 14 14 14 15 15
6 6 5 5 7 7 8 11 10 9 9 11 11 11 11 18 20 17 4 5 6 6 6 6 6 2 2 0 0 1 2 2 1 1 3 4 4 4 6 10 13 14 15
7 6 6 6 7 6 16 20 14 8 9 9 11 12 11 16 16 18 18 15 12 6 6 4 4 4 6 2 0 2 2 2 2 2 2 3 2 4 4 4 10 11 13
6 6 6 7 8 8 16 19 19 6 7 8 9 10 10 9 13 10 10 12 12 15 13 6 5 5 4 4 4 1 2 1 2 1 2 2 2 3 3 4 8 10 11
7 5 6 7 6 7 16 18 17 7 6 6 7 9 9 11 13 12 9 8 7 7 7 6 7 7 5 5 3 1 2 3 3 3 2 3 1 2 3 3 6 8 8
6 5 5 7 7 8 16 18 11 6 6 6 6 7 10 10 16 17 10 10 8 9 7 11 9 10 11 14 9 2 3 2 2 2 3 2 1 3 2 2 2 6 8
4 5 6 6 10 8 14 17 15 5 7 6 7 7 14 12 16 17 10 9 9 8 8 7 7 8 8 9 12 7 3 3 2 2 3 2 2 2 3 2 2 3 3
Wind_Direction
302 323 318 335 336 341 336 325 315 309 306 312 309 298 296 290 288 280 277 290 297 297 298 296 296 300 302 298 290 285 263 235 225 223 219 214 214 211 210 210 209 210 211
315 319 323 337 343 343 335 327 322 317 312 315 307 302 296 294 282 277 272 282 288 292 294 293 295 293 293 290 298 295 285 245 234 224 224 220 216 213 211 212 211 209 210
40 32 26 4 336 328 325 325 322 320 317 318 311 311 304 299 295 292 291 286 287 283 289 294 295 291 288 290 286 286 298 262 244 235 223 222 219 218 216 212 212 212 210
36 20 8 349 340 343 348 349 340 326 317 308 300 297 287 291 291 291 286 280 273 290 288 292 294 295 294 289 283 277 275 287 248 229 227 224 219 215 217 218 217 215 212
27 30 18 360 352 348 350 336 327 314 321 317 307 304 292 283 281 280 279 282 290 288 287 309 310 306 304 307 302 285 279 273 266 236 226 229 223 220 215 216 217 217 216
25 25 13 359 348 346 347 345 331 318 309 305 306 298 287 276 276 276 282 285 298 298 291 299 292 290 300 302 302 306 303 286 269 258 228 224 224 222 220 218 219 219 217
23 20 357 356 355 1 335 318 300 307 314 301 304 300 287 272 263 269 296 298 286 284 280 284 300 287 302 304 303 298 303 294 279 265 247 222 220 224 221 220 224 220 218
357 354 344 344 344 319 311 301 296 303 291 289 293 295 309 306 10 320 308 298 293 302 301 300 309 301 305 296 290 291 299 299 279 266 255 227 224 222 225 228 230 224 220
343 335 326 305 285 280 280 278 276 282 303 298 271 278 309 289 335 264 300 283 303 296 291 283 290 297 295 297 294 290 295 307 282 276 253 237 218 217 227 193 208 238 233
330 321 301 295 285 282 287 305 311 301 300 295 290 262 265 280 294 300 250 299 285 282 303 291 283 283 289 287 290 290 292 306 296 287 260 244 235 192 178 192 203 215 213
308 304 314 309 307 314 312 308 303 295 287 282 279 283 277 274 265 260 285 289 295 292 292 287 297 267 286 284 283 285 292 305 304 299 255 240 216 188 192 203 215 221 192
301 312 313 318 317 308 306 306 301 294 291 283 279 276 271 273 276 276 276 275 288 296 292 291 279 280 277 278 288 295 299 303 303 306 282 219 201 196 201 212 226 240 229
309 315 319 322 312 315 310 308 303 296 291 285 283 279 273 270 266 271 275 271 277 294 294 286 275 272 278 283 283 300 295 306 292 279 292 283 255 260 248 241 258 261 250
301 314 319 308 311 302 306 303 297 295 291 285 282 275 272 268 259 257 260 276 287 285 279 287 285 274 274 293 296 302 289 293 287 281 243 235 239 239 224 241 245 247 235
325 327 320 317 316 319 316 312 307 301 294 286 278 275 271 270 260 252 252 257 268 292 295 284 288 271 301 309 298 296 299 318 259 271 229 232 151 173 213 231 236 249 245
323 324 326 328 327 325 324 322 311 304 299 295 288 284 279 272 264 249 249 253 249 260 276 286 290 297 301 296 291 323 325 2 16 145 136 142 137 142 182 238 247 249 244
320 324 329 332 332 333 332 327 322 316 314 315 312 305 295 281 266 250 243 251 253 246 268 289 278 293 297 291 305 324 16 25 35 58 83 82 80 74 59 36 25 47 121
315 312 322 337 336 332 333 334 333 332 335 332 330 325 322 321 274 253 245 254 255 252 261 279 286 293 290 293 298 8 27 48 53 51 58 61 63 62 62 58 50 46 58
315 315 314 342 334 330 333 332 336 340 341 339 338 335 329 324 314 261 240 249 253 257 257 263 281 275 271 273 90 10 33 40 46 69 56 53 53 52 57 56 56 61 58
312 313 315 321 329 326 335 335 335 344 349 347 348 347 339 351 347 309 256 252 258 266 271 275 281 271 251 278 96 116 62 47 9 54 65 59 58 61 56 55 60 60 59
316 305 317 329 328 331 342 344 333 331 341 344 350 353 353 3 10 18 346 302 290 288 292 294 303 271 168 299 161 135 100 114 39 56 79 56 44 42 47 56 69 73 73
332 343 1 350 336 331 340 345 350 326 335 347 351 349 353 4 356 2 12 21 25 357 330 319 331 348 3 358 127 161 137 168 139 315 93 81 88 66 47 53 81 78 80
339 356 13 2 342 333 345 344 346 336 338 348 359 360 356 359 358 345 351 4 14 11 14 359 358 2 349 336 331 21 85 95 92 111 81 69 43 76 78 87 80 90 93
349 340 349 351 340 333 344 343 341 340 348 351 1 5 359 358 357 354 352 351 351 352 360 7 9 5 356 338 3 355 120 106 86 59 30 96 56 72 71 88 109 98 92
352 349 335 349 349 333 341 348 356 351 336 344 0 3 18 5 349 360 8 3 358 8 351 9 9 9 7 19 18 33 59 98 95 55 24 100 134 90 61 61 72 128 128
336 339 346 348 343 331 339 352 2 342 357 356 2 9 9 358 357 9 16 1 5 348 346 355 2 4 7 22 27 18 8 61 80 90 10 74 114 133 96 42 64 82 102